Flag for Germany Weather past 2 weeks in Freising, Bavaria, Germany

Now
64 °F

Fog.


Feels Like: 64 °F
Forecast: 62 / 70 °F
Wind: 1 mph from North

Location: Muenchen Flughafen

Current Time: Jul 28, 2014 at 11:11:24 AM

Latest Report: Jul 28, 2014 at 10:00 AM


Visibility: 3 mi

Pressure: 29.91 "Hg

Humidity: 90%

Dew point: 61 °F

Location of FreisingLocation

Historic Weather in Freising — Graph

°F

Freising temperature yesterday

Maximum temperature yesterday: 74 °F (at 4:00 PM)
Minimum temperature yesterday: 61 °F (at 5:00 AM)
Average temperature yesterday: 66 °F

Past Weeks' High & Low Weather Summary

 TemperatureHumidityPressure
High88 °F (Jul 19, 4:00 PM)100% (Jul 23, 4:00 AM)30.18 "Hg (Jul 23, 4:00 AM)
Low51 °F (Jul 24, 6:00 AM)32% (Jul 17, 6:00 PM)29.76 "Hg (Jul 20, 2:00 PM)
Average67 °F74%29.95 "Hg
* Reported Jul 13 10:00 AM — Jul 28 10:00 AM, Freising, Weather by CustomWeather, © 2014

Note: Actual official high and low records may vary slightly from our data, if they occured in-between our weather recording intervals... More about our weather records

Advertising

Freising weather history for previous 24 hours

 ConditionsComfort  
Time TempWeatherWind HumidityBarometerVisibility
10:00 AM
Jul 28
64 °FFog.1 mph90%29.91 "Hg3 mi
9:00 AM63 °FFog.1 mph92%29.93 "Hg2 mi
8:00 AM62 °FFog.1 mph94%29.94 "Hg1 mi
7:00 AM62 °FFog.3 mph94%29.94 "Hg3 mi
6:00 AM61 °FLow clouds.1 mph95%29.95 "Hg5 mi
5:00 AM60 °FLow clouds.2 mph96%29.95 "Hg6 mi
4:00 AM58 °FClear.1 mph97%29.96 "Hg8 mi
3:00 AM59 °FPassing clouds.3 mph97%29.96 "Hg7 mi
2:00 AM59 °FPassing clouds.2 mph98%29.98 "Hg7 mi
1:00 AM61 °FPassing clouds.1 mph96%29.99 "Hg9 mi
12:00 AM60 °FClear.3 mph95%29.98 "Hg14 mi
11:00 PM
Jul 27
64 °FPassing clouds.5 mph89%29.98 "Hg16 mi
10:00 PM65 °FPassing clouds.2 mph86%29.99 "Hg12 mi
9:00 PM67 °FPassing clouds.2 mph88%29.96 "Hg11 mi
8:00 PM68 °FPartly sunny.2 mph87%29.94 "Hg12 mi
7:00 PM67 °FRain showers. Overcast.5 mph85%29.93 "Hg6 mi
6:00 PM72 °FPartly sunny.6 mph69%29.92 "Hg16 mi
5:00 PM73 °FScattered clouds.5 mph68%29.92 "Hg16 mi
4:00 PM74 °FPartly sunny.6 mph69%29.92 "Hg12 mi
3:00 PM72 °FPartly sunny.6 mph72%29.94 "Hg12 mi
2:00 PM69 °FOvercast.5 mph80%29.96 "Hg12 mi
1:00 PM69 °FOvercast.3 mph77%29.96 "Hg9 mi
12:00 PM69 °FOvercast.5 mph74%29.95 "Hg9 mi
11:00 AM68 °FOvercast.5 mph80%29.95 "Hg7 mi
Weather by CustomWeather, © 2014

See weather overviewHow to use our weather pages